Location: Clanezzo
(45.7500°N, 9.6000°E)
Time: 03:17:13
(UTC+00:00)

USA 308 - Pass Details

Date: 12 May 2021
Orbit: 568 x 576 km, 54.0° (Epoch: 10 May)

Event Time Altitude Azimuth Distance (km) Brightness Sun altitude
Rises 21:23:45 0° 300° (WNW) 2,785 7.4 -20.9°
Reaches altitude 10° 21:26:04 10° 295° (WNW) 1,885 6.3 -21.1°
Maximum altitude 21:30:09 45° 223° (SW) 789 3.4 -21.4°
Enters shadow 21:30:15 45° 218° (SW) 790 3.4 -21.4°
